Hurricane Symbol View the latest observations near East Pacific Tropical Storm Bud.

Station PKBW3 - Pokegama Bay, Lake Superior Reserve, WI Image indicating link to RSS feed of recent meteorological observations for station PKBW3


Conditions at PKBW3 as of
(7:00 am CDT)
1200 GMT on 07/25/2024:
     

Click on the graph icon in the table below to see a time series plot of the last five days of that observation.

5-day plot - Wind Direction Wind Direction (WDIR):WSW ( 250 deg true )
5-day plot - Wind Speed Wind Speed (WSPD): 1.9 kts
5-day plot - Atmospheric Pressure Atmospheric Pressure (PRES):30.24 in
5-day plot - Pressure Tendency Pressure Tendency (PTDY):+0.03 in ( Rising )
5-day plot - Air Temperature Air Temperature (ATMP): 52.7 °F
5-day plot - Wind Speed at 10 Meters Wind Speed at 10 meters (WSPD10M): 1.9 kts
5-day plot - Wind Speed at 20 Meters Wind Speed at 20 meters (WSPD20M): 1.9 kts
5-day plot -  Wind Speed, Wind Gust and Atmospheric Pressure Combined plot of Wind Speed, Gust, and Air Pressure
Previous observations
TIME
(CDT)
5-day plot - Wind Direction
WDIR
 
5-day plot - Wind Speed
WSPD
kts
5-day plot - Wind Gust
GST
kts
5-day plot - Wave Height
WVHT
ft
5-day plot - Dominant Wave Period
DPD
sec
5-day plot - Average Wave Period
APD
sec
5-day plot - Mean Wave Direction
MWD
 
5-day plot - Atmospheric Pressure
PRES
in
5-day plot - Pressure Tendency
PTDY
in
5-day plot - Air Temperature
ATMP
°F
5-day plot - Water Temperature
WTMP
°F
5-day plot - Dew Point
DEWP
°F
5-day plot - Salinity
SAL
psu
5-day plot - Visibility
VIS
nmi
5-day plot - Tide (above MLLW)
TIDE
ft
2024-07-25 06:45 am W 1.0-----30.24- 52.9-----
2024-07-25 06:30 am W 1.0-----30.24- 52.7-----
2024-07-25 06:15 am- 0.0-----30.24- 52.9-----
2024-07-25 06:00 amWSW 1.9-----30.24+0.03 52.7-----
2024-07-25 05:45 am W 1.9-----30.24- 52.9-----
2024-07-25 05:30 amWSW 1.9-----30.24- 52.9-----
2024-07-25 05:15 am W 1.0-----30.24- 53.2-----
2024-07-25 05:00 am W 1.9-----30.24+0.03 52.9-----
2024-07-25 04:45 am W 1.9-----30.24- 53.2-----
2024-07-25 04:30 amWSW 1.0-----30.24- 53.1-----
2024-07-25 04:15 am W 1.9-----30.24- 53.1-----
2024-07-25 04:00 am W 1.9-----30.21+0.00 53.1- 53.1---
2024-07-25 03:45 am W 1.0-----30.21- 53.1- 53.1---
2024-07-25 03:30 am W 1.9-----30.21- 53.2- 53.2---
2024-07-25 03:15 am W 1.0-----30.21- 53.2- 53.2---
2024-07-25 03:00 am W 1.0-----30.21+0.00 53.2- 53.2---
2024-07-25 02:45 am W 1.9-----30.21- 53.6- 53.6---
2024-07-25 02:30 am W 1.0-----30.21- 53.8- 53.8---
2024-07-25 02:15 am W 1.9-----30.21- 53.8- 53.8---
2024-07-25 02:00 am W 1.9-----30.21+0.00 54.1- 54.1---
2024-07-25 01:45 am W 1.0-----30.21- 54.5- 54.1---
2024-07-25 01:30 am W 1.0-----30.21- 55.0- 54.7---
2024-07-25 01:15 amWSW 1.0-----30.21- 55.2- 54.9---
2024-07-25 01:00 am- 0.0-----30.21+0.00 55.6- 55.2---
2024-07-25 12:45 am- 0.0-----30.21- 55.6- 55.2---
2024-07-25 12:30 am- 0.0-----30.21- 55.9- 55.6---
2024-07-25 12:15 am- 0.0-----30.21- 56.3- 55.9---
2024-07-25 12:00 am- 0.0-----30.21+0.03 56.5- 56.1---
2024-07-24 11:45 pm- 0.0-----30.21- 57.0- 56.7---
2024-07-24 11:30 pm- 0.0-----30.21- 57.0- 56.7---
2024-07-24 11:15 pm- 0.0-----30.21- 57.6- 57.0---
2024-07-24 11:00 pm- 0.0-----30.21+0.03 57.7- 57.2---
2024-07-24 10:45 pm- 0.0-----30.21- 57.9- 57.4---
2024-07-24 10:30 pm- 0.0-----30.21- 58.3- 57.4---
2024-07-24 10:15 pm- 0.0-----30.21- 58.5- 57.6---
2024-07-24 10:00 pm- 0.0-----30.21+0.03 59.0- 57.9---
2024-07-24 09:45 pmSSE 1.0-----30.21- 59.2- 57.7---
2024-07-24 09:30 pm- 0.0-----30.18- 60.1- 58.6---
2024-07-24 09:15 pm- 0.0-----30.18- 61.0- 59.0---
2024-07-24 09:00 pm- 0.0-----30.18+0.00 62.1- 59.2---
2024-07-24 08:45 pm- 0.0-----30.18- 64.0- 59.5---
2024-07-24 08:30 pm- 0.0-----30.18- 66.2- 59.4---
2024-07-24 08:15 pm- 0.0-----30.18- 67.5- 59.0---
2024-07-24 08:00 pm SE 1.0-----30.18+0.00 67.6- 58.1---
2024-07-24 07:45 pm E 1.9-----30.18- 68.5- 57.4---
2024-07-24 07:30 pmESE 1.9-----30.18- 68.7- 57.9---
2024-07-24 07:15 pmESE 2.9-----30.18- 68.4- 57.2---
2024-07-24 07:00 pmESE 4.1-----30.18-0.03 68.5- 57.0---
2024-07-24 06:45 pm SE 2.9-----30.18- 69.3- 57.2---
2024-07-24 06:30 pm SE 2.9-----30.18- 69.4- 57.0---
2024-07-24 06:15 pmESE 2.9-----30.18- 69.8- 56.8---
2024-07-24 06:00 pmSSE 2.9-----30.18-0.03 70.0- 57.0---
2024-07-24 05:45 pmESE 4.1-----30.18- 70.2- 56.3---
2024-07-24 05:30 pm SE 2.9-----30.18- 70.5- 56.7---
2024-07-24 05:15 pmSSE 4.1-----30.18- 70.3- 57.0---
2024-07-24 05:00 pmESE 4.1-----30.18-0.03 70.3- 56.5---
2024-07-24 04:45 pm SE 4.1-----30.21- 70.5- 56.7---
2024-07-24 04:30 pm SE 4.1-----30.21- 70.3- 57.0---
2024-07-24 04:15 pm SE 5.1-----30.21- 70.2- 56.8---
2024-07-24 04:00 pm SE 5.1-----30.21+0.00 69.8- 56.5---
2024-07-24 03:45 pm SE 4.1-----30.21- 69.6- 57.2---
2024-07-24 03:30 pm SE 5.1-----30.21- 69.4- 57.0---
2024-07-24 03:15 pmSSE 4.1-----30.21- 69.8- 57.7---
2024-07-24 03:00 pmSSE 5.1-----30.21+0.00 69.8- 56.5---
2024-07-24 02:45 pmSSE 4.1-----30.21- 69.8- 55.9---
2024-07-24 02:30 pmSSE 4.1-----30.21- 70.2- 56.3---
2024-07-24 02:15 pmESE 2.9-----30.21- 70.0- 56.1---
2024-07-24 02:00 pm S 4.1-----30.21-0.03 69.4- 55.8---
2024-07-24 01:45 pmSSE 5.1-----30.21- 69.1- 56.1---
2024-07-24 01:30 pmESE 4.1-----30.21- 68.9- 56.5---
2024-07-24 01:15 pmSSE 2.9-----30.21- 68.9- 57.4---
2024-07-24 01:00 pmESE 4.1-----30.21-0.03 68.4- 57.2---
2024-07-24 12:45 pm SE 4.1-----30.21- 68.2- 57.4---
2024-07-24 12:30 pm SE 4.1-----30.21- 67.8- 57.6---
2024-07-24 12:15 pm SE 4.1-----30.21- 66.9- 57.4---
2024-07-24 12:00 pm SE 4.1-----30.21-0.03 66.9- 57.4---
2024-07-24 11:45 am SE 2.9-----30.21- 66.6- 57.4---
2024-07-24 11:30 amESE 2.9-----30.21- 66.4- 57.2---
2024-07-24 11:15 am SE 2.9-----30.21- 66.0- 57.7---
2024-07-24 11:00 amSSE 2.9-----30.24+0.03 65.7- 57.4---
2024-07-24 10:45 am S 4.1-----30.24- 65.1- 57.6---
2024-07-24 10:30 amSSE 2.9-----30.24- 64.8- 57.6---
2024-07-24 10:15 am SE 4.1-----30.24- 64.0- 57.6---
2024-07-24 10:00 amSSE 4.1-----30.24+0.03 63.9- 57.4---
2024-07-24 09:45 am SE 4.1-----30.24- 63.3- 57.6---
2024-07-24 09:30 am SE 2.9-----30.24- 63.7- 57.6---
2024-07-24 09:15 am SE 2.9-----30.24- 63.0- 57.2---
2024-07-24 09:00 am SE 2.9-----30.24+0.03 63.1- 57.4---
2024-07-24 08:45 am SE 2.9-----30.24- 62.2- 57.0---
2024-07-24 08:30 amWSW 1.9-----30.24- 61.3- 56.8---
2024-07-24 08:15 am W 1.0-----30.21- 60.3- 56.8---
2024-07-24 08:00 am- 0.0-----30.21+0.03 59.9- 57.0---
2024-07-24 07:45 am- 0.0-----30.21- 57.7- 56.1---
2024-07-24 07:30 am SW 1.0-----30.21- 56.5- 55.9---
2024-07-24 07:15 am SW 1.0-----30.21- 55.4- 55.4---
2024-07-24 07:00 am SW 1.0-----30.21+0.03 54.7- 54.7---